Year,Month,Day,Hour,Minute,Value (Times are PST for temperature in C)
2013,11,19,00,00,7.00
2013,11,19,00,01,7.00
2013,11,19,00,02,7.00
2013,11,19,00,03,7.00
2013,11,19,00,04,7.00
2013,11,19,00,05,7.00
2013,11,19,00,06,7.00
2013,11,19,00,07,7.00
2013,11,19,00,08,7.00
2013,11,19,00,09,7.00
2013,11,19,00,10,7.00
2013,11,19,00,11,7.00
2013,11,19,00,12,7.00
2013,11,19,00,13,7.00
2013,11,19,00,14,7.00
2013,11,19,00,15,7.00
2013,11,19,00,16,7.00
2013,11,19,00,17,7.00
2013,11,19,00,18,7.00
2013,11,19,00,19,7.00
2013,11,19,00,20,7.00
2013,11,19,00,21,7.00
2013,11,19,00,22,7.00
2013,11,19,00,23,7.00
2013,11,19,00,24,7.00
2013,11,19,00,25,7.00
2013,11,19,00,26,7.00
2013,11,19,00,27,7.00
2013,11,19,00,28,7.00
2013,11,19,00,29,7.00
2013,11,19,00,30,7.00
2013,11,19,00,31,7.00
2013,11,19,00,32,7.00
2013,11,19,00,33,7.00
2013,11,19,00,34,7.00
2013,11,19,00,35,7.00
2013,11,19,00,36,7.00
2013,11,19,00,37,7.00
2013,11,19,00,38,7.00
2013,11,19,00,39,7.00
2013,11,19,00,40,7.00
2013,11,19,00,41,7.10
2013,11,19,00,42,7.10
2013,11,19,00,43,7.10
2013,11,19,00,44,7.10
2013,11,19,00,45,7.10
2013,11,19,00,46,7.10
2013,11,19,00,47,7.10
2013,11,19,00,48,7.10
2013,11,19,00,49,7.10
2013,11,19,00,50,7.10
2013,11,19,00,51,7.10
2013,11,19,00,52,7.10
2013,11,19,00,53,7.10
2013,11,19,00,54,7.10
2013,11,19,00,55,7.10
2013,11,19,00,56,7.10
2013,11,19,00,57,7.10
2013,11,19,00,58,7.10
2013,11,19,00,59,7.10
2013,11,19,01,00,7.10
2013,11,19,01,01,7.10
2013,11,19,01,02,7.10
2013,11,19,01,03,7.10
2013,11,19,01,04,7.10
2013,11,19,01,05,7.00
2013,11,19,01,06,7.00
2013,11,19,01,07,7.10
2013,11,19,01,08,7.00
2013,11,19,01,09,7.00
2013,11,19,01,10,7.00
2013,11,19,01,11,7.00
2013,11,19,01,12,7.10
2013,11,19,01,13,7.00
2013,11,19,01,14,7.10
2013,11,19,01,15,7.10
2013,11,19,01,16,7.10
2013,11,19,01,17,7.10
2013,11,19,01,18,7.10
2013,11,19,01,19,7.10
2013,11,19,01,20,7.10
2013,11,19,01,21,7.10
2013,11,19,01,22,7.10
2013,11,19,01,23,7.10
2013,11,19,01,24,7.10
2013,11,19,01,25,7.10
2013,11,19,01,26,7.10
2013,11,19,01,27,7.10
2013,11,19,01,28,7.10
2013,11,19,01,29,7.10
2013,11,19,01,30,7.00
2013,11,19,01,31,7.00
2013,11,19,01,32,7.10
2013,11,19,01,33,7.10
2013,11,19,01,34,7.10
2013,11,19,01,35,7.10
2013,11,19,01,36,7.10
2013,11,19,01,37,7.10
2013,11,19,01,38,7.10
2013,11,19,01,39,7.10
2013,11,19,01,40,7.20
2013,11,19,01,41,7.20
2013,11,19,01,42,7.20
2013,11,19,01,43,7.20
2013,11,19,01,44,7.20
2013,11,19,01,45,7.20
2013,11,19,01,46,7.20
2013,11,19,01,47,7.20
2013,11,19,01,48,7.20
2013,11,19,01,49,7.30
2013,11,19,01,50,7.30
2013,11,19,01,51,7.30
2013,11,19,01,52,7.30
2013,11,19,01,53,7.30
2013,11,19,01,54,7.30
2013,11,19,01,55,7.30
2013,11,19,01,56,7.30
2013,11,19,01,57,7.30
2013,11,19,01,58,7.30
2013,11,19,01,59,7.40
2013,11,19,02,00,7.40
2013,11,19,02,01,7.40
2013,11,19,02,02,7.40
2013,11,19,02,03,7.40
2013,11,19,02,04,7.40
2013,11,19,02,05,7.40
2013,11,19,02,06,7.40
2013,11,19,02,07,7.40
2013,11,19,02,08,7.40
2013,11,19,02,09,7.50
2013,11,19,02,10,7.50
2013,11,19,02,11,7.50
2013,11,19,02,12,7.50
2013,11,19,02,13,7.60
2013,11,19,02,14,7.60
2013,11,19,02,15,7.60
2013,11,19,02,16,7.60
2013,11,19,02,17,7.60
2013,11,19,02,18,7.70
2013,11,19,02,19,7.70
2013,11,19,02,20,7.70
2013,11,19,02,21,7.70
2013,11,19,02,22,7.80
2013,11,19,02,23,7.80
2013,11,19,02,24,7.80
2013,11,19,02,25,7.80
2013,11,19,02,26,7.80
2013,11,19,02,27,7.80
2013,11,19,02,28,7.80
2013,11,19,02,29,7.80
2013,11,19,02,30,7.80
2013,11,19,02,31,7.80
2013,11,19,02,32,7.80
2013,11,19,02,33,7.80
2013,11,19,02,34,7.80
2013,11,19,02,35,7.80
2013,11,19,02,36,7.80
2013,11,19,02,37,7.70
2013,11,19,02,38,7.70
2013,11,19,02,39,7.70
2013,11,19,02,40,7.70
2013,11,19,02,41,7.70
2013,11,19,02,42,7.70
2013,11,19,02,43,7.70
2013,11,19,02,44,7.70
2013,11,19,02,45,7.70
2013,11,19,02,46,7.70
2013,11,19,02,47,7.80
2013,11,19,02,48,7.80
2013,11,19,02,49,7.80
2013,11,19,02,50,7.80
2013,11,19,02,51,7.80
2013,11,19,02,52,7.80
2013,11,19,02,53,7.80
2013,11,19,02,54,7.80
2013,11,19,02,55,7.80
2013,11,19,02,56,7.80
2013,11,19,02,57,7.80
2013,11,19,02,58,7.80
2013,11,19,02,59,7.80
2013,11,19,03,00,7.80
2013,11,19,03,01,7.80
2013,11,19,03,02,7.80
2013,11,19,03,03,7.80
2013,11,19,03,04,7.80
2013,11,19,03,05,7.80
2013,11,19,03,06,7.90
2013,11,19,03,07,7.90
2013,11,19,03,08,7.90
2013,11,19,03,09,7.90
2013,11,19,03,10,7.90
2013,11,19,03,11,7.90
2013,11,19,03,12,7.90
2013,11,19,03,13,7.90
2013,11,19,03,14,7.90
2013,11,19,03,15,7.90
2013,11,19,03,16,7.90
2013,11,19,03,17,7.90
2013,11,19,03,18,7.90
2013,11,19,03,19,7.90
2013,11,19,03,20,7.90
2013,11,19,03,21,7.90
2013,11,19,03,22,7.90
2013,11,19,03,23,7.90
2013,11,19,03,24,7.90
2013,11,19,03,25,7.90
2013,11,19,03,26,7.90
2013,11,19,03,27,7.90
2013,11,19,03,28,7.90
2013,11,19,03,29,7.90
2013,11,19,03,30,7.80
2013,11,19,03,31,7.80
2013,11,19,03,32,7.80
2013,11,19,03,33,7.80
2013,11,19,03,34,7.80
2013,11,19,03,35,7.80
2013,11,19,03,36,7.80
2013,11,19,03,37,7.80
2013,11,19,03,38,7.80
2013,11,19,03,39,7.80
2013,11,19,03,40,7.80
2013,11,19,03,41,7.80
2013,11,19,03,42,7.80
2013,11,19,03,43,7.80
2013,11,19,03,44,7.80
2013,11,19,03,45,7.80
2013,11,19,03,46,7.80
2013,11,19,03,47,7.80
2013,11,19,03,48,7.80
2013,11,19,03,49,7.80
2013,11,19,03,50,7.80
2013,11,19,03,51,7.80
2013,11,19,03,52,7.80
2013,11,19,03,53,7.80
2013,11,19,03,54,7.80
2013,11,19,03,55,7.80
2013,11,19,03,56,7.80
2013,11,19,03,57,7.80
2013,11,19,03,58,7.80
2013,11,19,03,59,7.80
2013,11,19,04,00,7.80
2013,11,19,04,01,7.80
2013,11,19,04,02,7.80
2013,11,19,04,03,7.80
2013,11,19,04,04,7.80
2013,11,19,04,05,7.80
2013,11,19,04,06,7.80
2013,11,19,04,07,7.80
2013,11,19,04,08,7.70
2013,11,19,04,09,7.70
2013,11,19,04,10,7.70
2013,11,19,04,11,7.70
2013,11,19,04,12,7.70
2013,11,19,04,13,7.70
2013,11,19,04,14,7.70
2013,11,19,04,15,7.70
2013,11,19,04,16,7.70
2013,11,19,04,17,7.70
2013,11,19,04,18,7.60
2013,11,19,04,19,7.60
2013,11,19,04,20,7.60
2013,11,19,04,21,7.60
2013,11,19,04,22,7.60
2013,11,19,04,23,7.60
2013,11,19,04,24,7.60
2013,11,19,04,25,7.60
2013,11,19,04,26,7.60
2013,11,19,04,27,7.60
2013,11,19,04,28,7.60
2013,11,19,04,29,7.60
2013,11,19,04,30,7.60
2013,11,19,04,31,7.60
2013,11,19,04,32,7.60
2013,11,19,04,33,7.60
2013,11,19,04,34,7.60
2013,11,19,04,35,7.60
2013,11,19,04,36,7.60
2013,11,19,04,37,7.60
2013,11,19,04,38,7.60
2013,11,19,04,39,7.60
2013,11,19,04,40,7.60
2013,11,19,04,41,7.60
2013,11,19,04,42,7.60
2013,11,19,04,43,7.60
2013,11,19,04,44,7.60
2013,11,19,04,45,7.50
2013,11,19,04,46,7.50
2013,11,19,04,47,7.50
2013,11,19,04,48,7.50
2013,11,19,04,49,7.50
2013,11,19,04,50,7.50
2013,11,19,04,51,7.40
2013,11,19,04,52,7.40
2013,11,19,04,53,7.40
2013,11,19,04,54,7.40
2013,11,19,04,55,7.40
2013,11,19,04,56,7.40
2013,11,19,04,57,7.40
2013,11,19,04,58,7.40
2013,11,19,04,59,7.40
2013,11,19,05,00,7.40
2013,11,19,05,01,7.40
2013,11,19,05,02,7.40
2013,11,19,05,03,7.40
2013,11,19,05,04,7.40
2013,11,19,05,05,7.40
2013,11,19,05,06,7.40
2013,11,19,05,07,7.40
2013,11,19,05,08,7.50
2013,11,19,05,09,7.50
2013,11,19,05,10,7.50
2013,11,19,05,11,7.50
2013,11,19,05,12,7.50
2013,11,19,05,13,7.50
2013,11,19,05,14,7.50
2013,11,19,05,15,7.50
2013,11,19,05,16,7.60
2013,11,19,05,17,7.50
2013,11,19,05,18,7.60
2013,11,19,05,19,7.60
2013,11,19,05,20,7.60
2013,11,19,05,21,7.60
2013,11,19,05,22,7.50
2013,11,19,05,23,7.50
2013,11,19,05,24,7.50
2013,11,19,05,25,7.50
2013,11,19,05,26,7.50
2013,11,19,05,27,7.40
2013,11,19,05,28,7.40
2013,11,19,05,29,7.40
2013,11,19,05,30,7.30
2013,11,19,05,31,7.30
2013,11,19,05,32,7.30
2013,11,19,05,33,7.20
2013,11,19,05,34,7.20
2013,11,19,05,35,7.20
2013,11,19,05,36,7.20
2013,11,19,05,37,7.20
2013,11,19,05,38,7.20
2013,11,19,05,39,7.10
2013,11,19,05,40,7.10
2013,11,19,05,41,7.10
2013,11,19,05,42,7.10
2013,11,19,05,43,7.10
2013,11,19,05,44,7.10
2013,11,19,05,45,7.10
2013,11,19,05,46,7.00
2013,11,19,05,47,7.00
2013,11,19,05,48,7.00
2013,11,19,05,49,6.90
2013,11,19,05,50,6.90
2013,11,19,05,51,6.90
2013,11,19,05,52,6.90
2013,11,19,05,53,6.90
2013,11,19,05,54,6.90
2013,11,19,05,55,6.90
2013,11,19,05,56,6.90
2013,11,19,05,57,6.90
2013,11,19,05,58,6.80
2013,11,19,05,59,6.80
2013,11,19,06,00,6.80
2013,11,19,06,01,6.80
2013,11,19,06,02,6.80
2013,11,19,06,03,6.80
2013,11,19,06,04,6.80
2013,11,19,06,05,6.80
2013,11,19,06,06,6.80
2013,11,19,06,07,6.80
2013,11,19,06,08,6.80
2013,11,19,06,09,6.70
2013,11,19,06,10,6.70
2013,11,19,06,11,6.70
2013,11,19,06,12,6.70
2013,11,19,06,13,6.70
2013,11,19,06,14,6.70
2013,11,19,06,15,6.70
2013,11,19,06,16,6.70
2013,11,19,06,17,6.70
2013,11,19,06,18,6.70
2013,11,19,06,19,6.70
2013,11,19,06,20,6.70
2013,11,19,06,21,6.70
2013,11,19,06,22,6.70
2013,11,19,06,23,6.70
2013,11,19,06,24,6.70
2013,11,19,06,25,6.70
2013,11,19,06,26,6.70
2013,11,19,06,27,6.80
2013,11,19,06,28,6.80
2013,11,19,06,29,6.80
2013,11,19,06,30,6.80
2013,11,19,06,31,6.80
2013,11,19,06,32,6.80
2013,11,19,06,33,6.80
2013,11,19,06,34,6.80
2013,11,19,06,35,6.80
2013,11,19,06,36,6.80
2013,11,19,06,37,6.80
2013,11,19,06,38,6.80
2013,11,19,06,39,6.80
2013,11,19,06,40,6.80
2013,11,19,06,41,6.80
2013,11,19,06,42,6.80
2013,11,19,06,43,6.80
2013,11,19,06,44,6.80
2013,11,19,06,45,6.70
2013,11,19,06,46,6.70
2013,11,19,06,47,6.70
2013,11,19,06,48,6.70
2013,11,19,06,49,6.70
2013,11,19,06,50,6.70
2013,11,19,06,51,6.70
2013,11,19,06,52,6.70
2013,11,19,06,53,6.60
2013,11,19,06,54,6.60
2013,11,19,06,55,6.60
2013,11,19,06,56,6.60
2013,11,19,06,57,6.60
2013,11,19,06,58,6.60
2013,11,19,06,59,6.60
2013,11,19,07,00,6.60
2013,11,19,07,01,6.50
2013,11,19,07,02,6.50
2013,11,19,07,03,6.50
2013,11,19,07,04,6.50
2013,11,19,07,05,6.50
2013,11,19,07,06,6.50
2013,11,19,07,07,6.50
2013,11,19,07,08,6.40
2013,11,19,07,09,6.40
2013,11,19,07,10,6.40
2013,11,19,07,11,6.40
2013,11,19,07,12,6.40
2013,11,19,07,13,6.40
2013,11,19,07,14,6.40
2013,11,19,07,15,6.40
2013,11,19,07,16,6.40
2013,11,19,07,17,6.40
2013,11,19,07,18,6.30
2013,11,19,07,19,6.30
2013,11,19,07,20,6.30
2013,11,19,07,21,6.30
2013,11,19,07,22,6.30
2013,11,19,07,23,6.30
2013,11,19,07,24,6.30
2013,11,19,07,25,6.30
2013,11,19,07,26,6.40
2013,11,19,07,27,6.40
2013,11,19,07,28,6.40
2013,11,19,07,29,6.40
2013,11,19,07,30,6.40
2013,11,19,07,31,6.40
2013,11,19,07,32,6.50
2013,11,19,07,33,6.50
2013,11,19,07,34,6.50
2013,11,19,07,35,6.50
2013,11,19,07,36,6.40
2013,11,19,07,37,6.40
2013,11,19,07,38,6.40
2013,11,19,07,39,6.40
2013,11,19,07,40,6.40
2013,11,19,07,41,6.40
2013,11,19,07,42,6.40
2013,11,19,07,43,6.40
2013,11,19,07,44,6.40
2013,11,19,07,45,6.40
2013,11,19,07,46,6.40
2013,11,19,07,47,6.50
2013,11,19,07,48,6.50
2013,11,19,07,49,6.50
2013,11,19,07,50,6.50
2013,11,19,07,51,6.40
2013,11,19,07,52,6.40
2013,11,19,07,53,6.40
2013,11,19,07,54,6.40
2013,11,19,07,55,6.40
2013,11,19,07,56,6.30
2013,11,19,07,57,6.30
2013,11,19,07,58,6.30
2013,11,19,07,59,6.20
2013,11,19,08,00,6.20
2013,11,19,08,01,6.10
2013,11,19,08,02,6.10
2013,11,19,08,03,6.00
2013,11,19,08,04,5.90
2013,11,19,08,05,5.90
2013,11,19,08,06,5.80
2013,11,19,08,07,5.70
2013,11,19,08,08,5.70
2013,11,19,08,09,5.60
2013,11,19,08,10,5.60
2013,11,19,08,11,5.60
2013,11,19,08,12,5.50
2013,11,19,08,13,5.50
2013,11,19,08,14,5.50
2013,11,19,08,15,5.40
2013,11,19,08,16,5.40
2013,11,19,08,17,5.50
2013,11,19,08,18,5.50
2013,11,19,08,19,5.50
2013,11,19,08,20,5.60
2013,11,19,08,21,5.60
2013,11,19,08,22,5.60
2013,11,19,08,23,5.60
2013,11,19,08,24,5.70
2013,11,19,08,25,5.70
2013,11,19,08,26,5.80
2013,11,19,08,27,5.90
2013,11,19,08,28,6.00
2013,11,19,08,29,6.10
2013,11,19,08,30,6.10
2013,11,19,08,31,6.20
2013,11,19,08,32,6.20
2013,11,19,08,33,6.20
2013,11,19,08,34,6.30
2013,11,19,08,35,6.30
2013,11,19,08,36,6.30
2013,11,19,08,37,6.30
2013,11,19,08,38,6.30
2013,11,19,08,39,6.20
2013,11,19,08,40,6.20
2013,11,19,08,41,6.20
2013,11,19,08,42,6.20
2013,11,19,08,43,6.10
2013,11,19,08,44,6.10
2013,11,19,08,45,6.00
2013,11,19,08,46,5.90
2013,11,19,08,47,5.80
2013,11,19,08,48,5.70
2013,11,19,08,49,5.70
2013,11,19,08,50,5.60
2013,11,19,08,51,5.50
2013,11,19,08,52,5.50
2013,11,19,08,53,5.40
2013,11,19,08,54,5.40
2013,11,19,08,55,5.40
2013,11,19,08,56,5.40
2013,11,19,08,57,5.40
2013,11,19,08,58,5.40
2013,11,19,08,59,5.40
2013,11,19,09,00,5.50
2013,11,19,09,01,5.50
2013,11,19,09,02,5.60
2013,11,19,09,03,5.60
2013,11,19,09,04,5.70
2013,11,19,09,05,5.70
2013,11,19,09,06,5.80
2013,11,19,09,07,5.80
2013,11,19,09,08,5.80
2013,11,19,09,09,5.90
2013,11,19,09,10,5.90
2013,11,19,09,11,6.00
2013,11,19,09,12,6.10
2013,11,19,09,13,6.10
2013,11,19,09,14,6.10
2013,11,19,09,15,6.20
2013,11,19,09,16,6.20
2013,11,19,09,17,6.30
2013,11,19,09,18,6.30
2013,11,19,09,19,6.30
2013,11,19,09,20,6.30
2013,11,19,09,21,6.30
2013,11,19,09,22,6.30
2013,11,19,09,23,6.40
2013,11,19,09,24,6.40
2013,11,19,09,25,6.40
2013,11,19,09,26,6.40
2013,11,19,09,27,6.40
2013,11,19,09,28,6.40
2013,11,19,09,29,6.40
2013,11,19,09,30,6.50
2013,11,19,09,31,6.50
2013,11,19,09,32,6.50
2013,11,19,09,33,6.50
2013,11,19,09,34,6.50
2013,11,19,09,35,6.50
2013,11,19,09,36,6.50
2013,11,19,09,37,6.50
2013,11,19,09,38,6.50
2013,11,19,09,39,6.50
